Wetbulb
54.08 51.91 50.73 49.07 48.44 45.83 45.51 45.27 44.53 44.83 44.65 43.46 43.88 43.20 43.20 41.98 42.59 44.25 43.49 43.51 43.61 42.84
52.70 51.20 51.51 50.05 48.70 44.92 44.69 44.34 45.04 44.74 43.81 43.53 41.88 42.39 42.44 41.17 41.41 42.27 43.02 42.22 42.16 41.50
50.15 50.23 51.17 48.72 44.20 41.04 41.50 41.08 42.42 42.13 41.38 40.88 40.00 39.88 40.56 39.75 39.97 40.75 41.49 40.75 40.04 39.62
47.97 48.01 49.34 44.88 41.40 38.92 37.83 39.07 40.05 39.07 39.11 38.08 37.91 38.52 40.38 40.21 38.87 39.18 38.56 38.56 38.30 37.86
48.57 41.05 39.67 38.71 38.16 37.11 36.91 38.12 37.84 37.34 37.13 38.53 37.67 37.53 37.41 37.44 36.48 36.31 35.17 36.54 36.99 35.65
44.29 39.53 37.62 36.55 36.75 36.68 36.25 38.01 37.36 37.10 36.87 35.94 37.15 36.77 37.67 35.60 35.65 36.17 36.36 35.69 34.92 34.81
43.31 37.83 37.38 36.95 36.09 35.91 37.01 36.37 35.61 35.81 36.53 35.88 35.44 35.73 35.64 35.48 35.52 34.28 33.90 34.21 33.58 33.42
39.57 38.17 36.14 35.95 35.24 34.51 35.22 34.87 34.25 34.34 35.82 36.94 36.58 36.53 35.15 35.03 34.58 33.24 33.23 32.58 32.52 33.72
40.75 38.08 35.80 34.99 34.41 34.17 33.68 33.14 33.17 33.60 33.97 34.61 34.28 33.87 33.65 33.41 33.24 33.30 32.40 32.12 33.02 30.80
39.35 36.01 35.19 34.20 33.02 32.43 32.24 32.46 32.97 33.13 33.91 34.66 34.35 32.67 31.51 30.97 32.67 31.82 31.61 31.25 31.07 30.89
39.49 37.56 35.77 33.75 33.17 33.03 32.55 32.06 31.73 32.33 32.79 33.13 32.89 31.75 30.68 30.35 30.50 31.04 31.45 31.28 31.51 31.13
40.40 38.60 36.09 33.89 33.23 33.00 32.29 32.04 31.53 31.81 32.44 31.95 30.55 30.63 30.02 29.63 30.30 30.14 30.27 31.16 32.31 32.41
42.24 39.64 35.86 34.96 33.60 33.15 32.69 31.78 31.51 31.01 32.13 31.79 30.16 30.51 29.77 29.62 29.85 28.87 29.93 30.39 31.51 30.96
42.18 38.85 35.78 33.97 33.42 32.23 31.83 30.94 29.86 30.02 31.43 31.40 31.05 30.21 29.68 29.53 29.55 30.62 28.76 28.89 29.54 30.78
MSLP
1006.13 1006.99 1007.86 1008.95 1009.62 1011.25 1012.46 1014.18 1015.62 1015.24 1015.82 1017.28 1017.93 1018.02 1018.29 1019.62 1019.90 1020.31 1020.68 1020.82 1020.80 1021.09
1005.80 1006.62 1007.25 1008.42 1009.70 1011.08 1012.60 1013.41 1015.23 1015.68 1016.13 1017.31 1018.12 1018.38 1018.80 1019.31 1019.83 1020.12 1020.64 1021.09 1021.06 1021.37
1005.82 1006.88 1007.49 1008.67 1010.18 1010.95 1012.20 1013.56 1015.24 1016.07 1016.98 1017.76 1018.33 1018.77 1019.16 1019.43 1019.75 1020.25 1020.21 1020.66 1021.26 1021.63
1006.30 1007.10 1007.45 1008.63 1010.10 1011.24 1012.42 1013.28 1015.62 1016.09 1016.75 1017.56 1018.28 1018.88 1018.68 1019.26 1019.75 1020.12 1020.52 1020.84 1021.26 1021.78
1006.23 1007.97 1009.07 1009.47 1010.20 1011.45 1012.61 1013.49 1015.17 1015.85 1017.16 1017.88 1018.50 1019.03 1019.77 1019.76 1019.73 1019.95 1020.72 1021.00 1021.28 1021.96
1006.76 1008.28 1008.80 1009.67 1010.34 1011.45 1012.60 1013.25 1014.70 1015.40 1016.51 1018.23 1018.68 1019.20 1019.53 1019.68 1019.84 1020.34 1021.04 1021.23 1021.84 1022.23
1007.04 1007.50 1008.49 1009.10 1010.03 1010.78 1012.02 1012.86 1014.24 1015.10 1016.36 1017.33 1018.50 1019.44 1019.32 1019.35 1019.34 1021.05 1021.54 1021.82 1022.64 1022.92
1006.83 1007.74 1008.15 1008.73 1009.33 1010.05 1011.41 1012.47 1013.76 1015.14 1015.71 1017.02 1018.00 1018.46 1019.24 1019.05 1019.62 1020.52 1021.18 1021.99 1022.82 1023.04
1006.30 1007.50 1008.55 1008.88 1009.80 1010.36 1011.28 1012.27 1012.64 1014.25 1015.09 1016.03 1017.16 1018.02 1018.56 1018.76 1020.41 1020.56 1020.94 1022.34 1023.11 1023.68
1005.51 1006.69 1008.04 1008.96 1009.64 1010.19 1010.92 1012.02 1012.96 1013.98 1014.54 1015.02 1016.27 1017.53 1018.25 1019.14 1019.56 1020.43 1021.09 1022.27 1022.93 1023.35
1004.72 1005.66 1007.00 1008.26 1009.33 1009.68 1010.55 1011.34 1012.29 1013.10 1014.88 1015.87 1016.38 1016.91 1018.11 1019.14 1019.96 1020.12 1020.84 1021.93 1022.49 1022.67
1004.21 1005.17 1005.90 1006.85 1008.53 1009.51 1010.16 1011.02 1011.76 1013.03 1014.53 1015.50 1017.00 1017.29 1017.52 1018.74 1019.44 1019.85 1020.47 1021.34 1022.04 1022.44
1004.05 1004.66 1005.61 1006.72 1007.41 1008.92 1010.06 1010.74 1011.63 1012.90 1014.06 1015.20 1016.42 1017.55 1018.20 1018.77 1019.16 1019.99 1020.53 1021.07 1021.80 1022.66
1003.37 1004.23 1005.53 1006.74 1007.32 1008.57 1009.59 1010.43 1011.30 1012.43 1013.92 1014.62 1015.97 1017.12 1017.90 1019.11 1018.93 1019.83 1020.98 1021.10 1021.53 1022.59
Wind_Speed
22 14 14 18 15 12 13 12 14 14 14 12 12 11 11 9 7 8 7 9 6 5
17 19 17 19 16 11 9 9 13 13 13 13 11 11 11 9 9 9 8 7 8 6
14 15 16 16 15 14 11 11 13 13 13 12 11 11 10 9 10 9 8 7 8 6
11 13 15 14 14 14 15 16 13 13 13 12 11 11 11 12 12 11 10 9 9 8
12 11 11 12 15 15 16 15 14 13 10 12 10 11 11 12 11 11 11 11 11 10
15 13 14 14 15 15 15 15 13 14 14 13 12 14 11 11 12 10 11 11 10 9
15 14 14 16 16 17 16 18 16 16 15 14 14 14 14 14 13 12 10 10 10 10
9 11 13 15 17 18 18 16 17 14 14 15 13 11 14 13 14 15 14 12 11 10
13 12 11 12 12 13 14 16 18 16 16 16 10 18 18 14 11 11 13 10 8 12
14 14 13 11 13 14 16 17 17 15 16 17 16 22 23 22 12 13 13 13 12 11
15 16 15 16 15 14 15 17 15 17 14 12 12 26 25 23 16 14 16 15 16 16
15 15 16 17 16 14 14 14 15 14 16 14 13 24 26 19 14 15 16 15 15 15
14 13 14 13 15 13 12 12 11 13 14 17 15 24 25 15 9 13 10 13 13 13
12 11 12 12 11 13 13 13 14 15 13 15 17 20 24 20 11 10 10 9 10 10
Wind_Direction
194 183 184 180 174 173 176 183 176 167 160 168 167 149 143 153 150 155 151 160 152 139
194 187 187 177 174 161 164 158 171 167 159 162 159 152 152 153 154 158 158 144 145 139
185 189 184 172 167 146 139 134 165 157 159 151 153 158 169 157 155 164 154 149 148 137
185 192 179 164 151 140 129 136 162 150 154 155 163 170 171 172 164 165 150 152 151 147
173 136 153 141 135 135 138 143 155 148 153 163 170 172 180 173 166 161 160 160 153 155
166 163 150 145 141 143 148 145 154 152 160 174 179 179 175 170 163 158 164 158 152 155
181 164 158 152 153 155 161 156 163 166 169 172 175 185 176 171 153 159 157 148 153 151
173 164 159 169 169 161 165 166 160 166 164 173 180 177 180 168 159 163 150 149 153 151
177 166 172 160 161 161 161 165 154 163 165 173 171 179 165 149 161 146 138 137 130 127
167 163 162 163 160 162 168 166 169 170 173 173 170 171 161 156 146 147 144 150 147 135
182 175 168 169 180 173 171 173 172 166 176 178 172 165 161 159 156 155 155 160 158 155
185 181 173 172 177 176 172 172 170 167 167 165 164 164 157 164 164 164 163 168 172 168
197 182 179 178 173 174 175 164 156 157 157 155 155 165 162 168 167 164 163 163 163 169
185 177 173 172 166 164 164 155 153 150 152 148 156 163 163 191 171 163 163 160 153 162